This is the latest recevied weather packets stored in our database for station/object KB3AWQ. If no packets are shown the sender has not sent any weather packets the latest 10 day(s).
| Time | Temp. | Humidity | Pressure | Rain* | Wind** | Luminosity | Snow |
|---|---|---|---|---|---|---|---|
| 1777138166 | 8.89° C | 93% | 1012.4 hPa | 1.78 mm | - | 144 W/m² | - |
| 1777137866 | 8.89° C | 92% | 1012.1 hPa | 1.78 mm | - | 179 W/m² | - |
| 1777137566 | 8.89° C | 95% | 1012.4 hPa | 2.03 mm | - | 168 W/m² | - |
| 1777137266 | 8.89° C | 93% | 1012.4 hPa | 2.54 mm | - | 182 W/m² | - |
| 1777136966 | 8.89° C | 93% | 1012.4 hPa | 2.29 mm | - | 233 W/m² | - |
| 1777136671 | 8.89° C | 94% | 1012.4 hPa | 2.29 mm | - | 170 W/m² | - |
| 1777136366 | 8.89° C | 93% | 1012.3 hPa | 2.54 mm | - | 160 W/m² | - |
| 1777136067 | 8.89° C | 93% | 1012.3 hPa | 2.79 mm | - | 193 W/m² | - |
| 1777135766 | 8.89° C | 94% | 1012.5 hPa | 2.79 mm | - | 235 W/m² | - |
| 1777135467 | 8.89° C | 95% | 1012.5 hPa | 3.05 mm | - | 215 W/m² | - |
| 1777135167 | 8.89° C | 94% | 1012.5 hPa | 3.3 mm | - | 227 W/m² | - |
| 1777134866 | 8.89° C | 94% | 1012.7 hPa | 3.56 mm | - | 175 W/m² | - |
| 1777134566 | 8.89° C | 94% | 1012.8 hPa | 3.56 mm | - | 155 W/m² | - |
| 1777134266 | 8.89° C | 94% | 1012.7 hPa | 3.81 mm | - | 181 W/m² | - |
| 1777133967 | 8.89° C | 93% | 1012.8 hPa | 3.3 mm | - | 148 W/m² | - |
| 1777133667 | 8.89° C | 93% | 1013 hPa | 3.3 mm | - | 121 W/m² | - |
| 1777133367 | 8.89° C | 94% | 1013.1 hPa | 3.56 mm | - | 147 W/m² | - |
| 1777133066 | 8.89° C | 93% | 1013.1 hPa | 3.81 mm | - | 113 W/m² | - |
| 1777132766 | 8.89° C | 93% | 1013.2 hPa | 3.81 mm | - | 132 W/m² | - |
| 1777132466 | 8.89° C | 93% | 1013.2 hPa | 3.3 mm | - | 124 W/m² | - |
| 1777132167 | 8.89° C | 92% | 1013.2 hPa | 2.79 mm | - | 162 W/m² | - |
| 1777131866 | 8.89° C | 92% | 1013.2 hPa | 2.79 mm | - | 156 W/m² | - |
| 1777131567 | 8.89° C | 92% | 1013.4 hPa | 2.54 mm | - | 138 W/m² | - |
| 1777131266 | 8.89° C | 91% | 1013.4 hPa | 2.54 mm | - | 122 W/m² | - |
| 1777130966 | 8.89° C | 91% | 1013.4 hPa | 2.54 mm | - | 121 W/m² | - |
* Rain latest hour (hover to see other rain measurements)
** Current wind speed in m/s (hover to see current wind gust speed)